Regional Weather Roundup
Issued by NWS

Home | Current Version | Previous Version | Text Only | Print | Product List | Glossary On
Versions: 1 2 3 4 5 6 7 8 9 10 11 12 13 14 15 16 17 18 19 20 21 22 23 24 25 26 27 28 29 30 31 32 33 34 35 36 37 38 39 40 41 42 43 44 45 46 47 48 49 50
000
ASUS43 KMKX 230711
RWRWI

WISCONSIN REGIONAL WEATHER ROUNDUP
NATIONAL WEATHER SERVICE MILWAUKEE/SULLIVAN WI
200 AM CDT TUE SEP 23 2014

NOTE: "FAIR" INDICATES FEW OR NO CLOUDS BELOW 12,000 FEET WITH NO
SIGNIFICANT WEATHER AND/OR OBSTRUCTIONS TO VISIBILITY.

WIZ001-002-006>008-014>016-023>028-230800-
NORTHWEST WISCONSIN

CITY           SKY/WX    TMP DP  RH WIND       PRES   REMARKS
SUPERIOR ARPT  CLEAR     52  50  93 SW6       30.16S
ASHLAND        CLEAR     55  50  83 SW8       30.18R
HAYWARD        CLEAR     45  44  97 CALM      30.20R
SIREN          CLEAR     49  48  95 CALM      30.19R
CUMBERLAND     SUNNY     43  43 100 CALM      30.21R
RICE LAKE      FOG       46  45  97 CALM      30.22R VSB 1/2
CHETEK         FOG       46  46 100 CALM      30.22R VSB 1
LADYSMITH      CLEAR     46  45  95 CALM      30.23R
EAU CLAIRE     FOG       45  44  97 CALM      30.21R VSB 1
MENOMONIE      SUNNY     49  48  97 CALM      30.21S FOG
NEW RICHMOND   CLEAR     48  48  98 SE3       30.20R
OSCEOLA        CLEAR     52  51  97 S5        30.22R
$$

WIZ003>005-009-010-017-018-230800-
NORTH CENTRAL WISCONSIN

CITY           SKY/WX    TMP DP  RH WIND       PRES   REMARKS
MANITOWISH WTR FOG       43  43 100 CALM      30.20S VSB 1/4
ARBOR VITAE    CLEAR     46  44  93 CALM      30.21R FOG
WOODRUFF       CLEAR     46  44  93 CALM      30.21R FOG
RHINELANDER    CLEAR     46  45  96 W7        30.22R
EAGLE RIVER    FOG       46  46 100 W5        30.20S VSB 1
LAND O LAKES   CLEAR     39  39 100 CALM      30.21R
PHILLIPS       CLEAR     44  42  95 CALM      30.21S
TOMAHAWK       CLEAR     42  42  97 CALM      30.22R FOG
MEDFORD        CLEAR     44  44 100 CALM      30.22S FOG
MERRILL        PTCLDY    41  41 100 CALM      30.22S FOG
$$

WIZ029-030-035-036-043>047-230800-
CENTRAL WISCONSIN

CITY           SKY/WX    TMP DP  RH WIND       PRES   REMARKS
WAUSAU         CLEAR     48  47  96 CALM      30.21R
MOSINEE        CLEAR     46  46 100 SW3       30.23S
MARSHFIELD     CLEAR     48  47  96 CALM      30.22S
STEVENS POINT  CLEAR     42  42  99 CALM      30.23R
WAUPACA        CLEAR     48  47  95 CALM      30.22S
WAUTOMA        CLEAR     43  42  96 CALM      30.23S
WISC RAPIDS    CLEAR     46  45  96 CALM      30.23F FOG
CAMP DOUGLAS   CLEAR     39  39 100 E1        30.23R FOG
$$

WIZ011>013-019>022-031-037>040-048>050-230800-
NORTHEAST WISCONSIN

CITY           SKY/WX    TMP DP  RH WIND       PRES   REMARKS
ANTIGO         CLEAR     47  46  95 CALM      30.22S
SHAWANO        SUNNY     49  46  91 CALM      30.21S
OCONTO         SUNNY     49  49 100 CALM      30.19S
STURGEON BAY   CLEAR     55  48  76 SW6       30.20S
GREEN BAY      CLEAR     48  47  96 CALM      30.21S
MANITOWOC      CLEAR     51  50  96 W5        30.22R
APPLETON       CLEAR     50  48  93 W6        30.22S
CLINTONVILLE   CLEAR     45  45 100 CALM      30.21S
OSHKOSH        CLEAR     53  49  86 SW3       30.22S
$$

WIZ032>034-041-042-053>061-230800-
SOUTHWEST WISCONSIN

CITY           SKY/WX    TMP DP  RH WIND       PRES   REMARKS
LA CROSSE      CLEAR     53  50  89 SE6       30.23R
SPARTA         CLOUDY    41  41 100 CALM      30.24S FOG
VIROQUA        SUNNY     52  48  88 S5        30.24S
BOSCOBEL       FOG       46  44  93 CALM      30.26R VSB 1
PRAIRIE DU CHI CLEAR     49  47  95 E5        30.25R
PLATTEVILLE    CLEAR     50  47  88 S3        30.26S
$$

WIZ056-057-062-063-064-067-068-230800-
SOUTH CENTRAL WISCONSIN

CITY           SKY/WX    TMP DP  RH WIND       PRES   REMARKS
REEDSBURG      MOSUNNY   45  45  99 CALM      30.24S
BARABOO/DELLS  CLEAR     48  46  93 CALM      30.24S
LONE ROCK      HAZE      48  43  82 CALM      30.25S VSB 1/4
MINERAL POINT  CLEAR     52  46  82 S5        30.26R
MADISON        PTCLDY    48  47  96 CALM      30.25R FOG
MIDDLETON      SUNNY     47  46  98 CALM      30.25S
WATERTOWN      CLEAR     45  45 100 CALM      30.24S
MONROE         CLEAR     52  46  82 SW8       30.26R
JANESVILLE     CLEAR     48  45  87 CALM      30.26R
$$

WIZ051-052-058>065-066-070>072-230800-
SOUTHEAST WISCONSIN

CITY           SKY/WX    TMP DP  RH WIND       PRES   REMARKS
MILWAUKEE      CLEAR     54  46  74 CALM      30.25S
WAUKESHA       CLEAR     46  45  93 CALM      30.26F
MILWAUKEE/TIMM CLEAR     48  45  87 CALM      30.26S
RACINE         CLEAR     53  46  77 W3        30.27S
BURLINGTON     CLEAR     42  42 100 CALM      30.26S
KENOSHA        CLEAR     47  45  93 CALM      30.26S
FOND DU LAC    CLEAR     52  48  86 SW6       30.23S
SHEBOYGAN      CLEAR     47  45  93 SW3       30.23R
WEST BEND      CLEAR     46  45  93 CALM      30.24S
JUNEAU         CLEAR     48  47  95 CALM      30.25S
$$

LSZ147-162-230800-
LAKE SUPERIOR

STATION/POSITION TIME  TEMP    WIND        PRES    WAVE
                       AIR SEA DIR/SP/G            HT/PER
                 (UTC) (F)     (DEG/KT/KT) (MB)    (FT/S)
W MID LAKE BUOY  0650   52 48  240/ 12/ 14 1020.0R   2/ 4
DEVILS ISLAND    0700   58     240/ 15/ 17 1020.9R
PORT WING        0600   57     180/  4/  5 1021.0S
SAXON HARBOR     0640   57     180/  6/  9 1021.7R
$$

LMZ867-665-643>646-230800-
LAKE MICHIGAN

STATION/POSITION TIME  TEMP    WIND        PRES    WAVE
                       AIR SEA DIR/SP/G            HT/PER
                 (UTC) (F)     (DEG/KT/KT) (MB)    (FT/S)
CHAMBERS ISLAND  0600   56     210/  3/  8 1022.0R
S GREEN BAY BUOY 0700   59                 1023.3R
N MID LAKE BUOY  0650   58 57  240/ 12/ 14 1021.7R   2/ 5
NORTHPORT PIER   0600   60     270/  5/ 11 1021.3S
KEWAUNEE LAKESHO 0600   51     300/  5/  6 1021.7R
SHEBOYGAN LAKESH 0700   55 54  240/  9/ 10 1024.0R
PORT WASHINGTON  0640   54     280/  3/  4 1024.4R
ATWATER BUOY     0700   57     230/ 10/ 10 1025.0R
S MID LAKE BUOY  0650   61 62  220/ 14/ 16 1024.7S   2/ 4
KENOSHA   LAKESH 0700   54     250/  8/  9 1024.4S
$$

TC  - TEMPERATURE IN CELSIUS
VSB - VISIBILITY IN STATUTE MILES
WCI - WIND CHILL INDEX
HX  - HEAT INDEX




USA.gov is the U.S. government's official web portal to all federal, state and local government web resources and services.